Eau Claire, WI

3:19 PM CST on January 18, 2017 (GMT -0600)
Chippewa Valley Regional

Weather History for KEAU - April, 2013

Change the Weather History Date:

Wednesday, April 10, 2013

  Actual Average Record
Temperature  
Mean Temperature 34 °F 43 °F  
Max Temperature 39 °F 55 °F 85 °F (1977)
Min Temperature 28 °F 32 °F 13 °F (1952)
Degree Days  
Heating Degree Days 31 22  
Month to date heating degree days 314 240  
Since 1 July heating degree days 7442 7304  
Cooling Degree Days 0 0  
Month to date cooling degree days 0 0  
Year to date cooling degree days 0 0  
Moisture  
Dew Point 26 °F    
Average Humidity 74    
Maximum Humidity 100    
Minimum Humidity 48    
Precipitation  
Precipitation 0.34 in 0.09 in 1.01 in (2008)
Month to date precipitation 1.70 0.81  
Year to date precipitation 7.09 4.24  
Snow  
Snow 2.70 in 0.10 in 2.70 in (2013)
Month to date snowfall 3.1 1.0  
Since 1 July snowfall 69.3 45.9  
Snow Depth 3.00 in    
Sea Level Pressure  
Sea Level Pressure 30.08 in    
Wind  
Wind Speed 11 mph (NE)    
Max Wind Speed 25 mph    
Max Gust Speed 29 mph    
Visibility 7 miles    
Events Snow , Thunderstorm    
T = Trace of Precipitation, MM = Missing Value Source: NWS Daily Summary

Daily Weather History Graph

Daily Weather History Graph

Search for Another Location

Airport or City:

Trip Planner

Search our weather history database for the weather conditions in past years. The results will help you decide how hot, cold, wet, or windy it might be!

Date:

Astronomy

Apr. 10, 2013 Rise Set
Actual Time 6:29 AM CDT 7:45 PM CDT
Civil Twilight 5:59 AM CDT 8:15 PM CDT
Nautical Twilight 5:23 AM CDT 8:52 PM CDT
Astronomical Twilight 4:44 AM CDT 9:30 PM CDT
Moon 6:24 AM CDT (4/10) 8:24 PM CDT (4/10)
Length of Visible Light 14h 15m
Length of Day
13h 15m
New Moon, 0% of the Moon is Illuminated
Apr 10
New Moon
Apr 18
First Quarter
Apr 25
Full
May 2
Last Quarter
May 9
New

Hourly Weather History & Observations

Time (CDT) Temp. Windchill Dew Point Humidity Pressure Visibility Wind Dir Wind Speed Gust Speed Precip Events Conditions
12:04 AM 33.8 °F - 30.2 °F 87% 30.16 in 2.5 mi Calm Calm - 0.01 in Snow , Thunderstorm Light Thunderstorms and Snow
12:12 AM 33.8 °F 30.8 °F 30.2 °F 87% 30.16 in 1.2 mi North 3.5 mph - 0.02 in Snow , Thunderstorm Light Thunderstorms and Snow
12:21 AM 32.0 °F 24.8 °F 30.2 °F 93% 30.14 in 1.0 mi NNE 8.1 mph - 0.04 in Snow Light Snow
12:29 AM 32.0 °F 24.2 °F 30.2 °F 93% 30.12 in 0.8 mi NNE 9.2 mph - 0.07 in Snow Light Snow
12:56 AM 30.9 °F 19.8 °F 28.9 °F 92% 30.16 in 1.0 mi NE 16.1 mph 23.0 mph 0.17 in Snow Light Snow
1:18 AM 30.2 °F 19.8 °F 28.4 °F 93% 30.12 in 1.2 mi NE 13.8 mph 23.0 mph 0.07 in Snow Light Snow
1:25 AM 30.2 °F 20.2 °F 28.4 °F 93% 30.12 in 2.0 mi NE 12.7 mph 20.7 mph 0.08 in   Overcast
1:35 AM 30.2 °F 19.8 °F 28.4 °F 93% 30.13 in 5.0 mi NE 13.8 mph 20.7 mph 0.08 in   Overcast
1:56 AM 30.0 °F 20.5 °F 28.0 °F 92% 30.18 in 3.0 mi NNE 11.5 mph 20.7 mph 0.09 in Snow Light Snow
2:00 AM 30.2 °F 22.6 °F 28.4 °F 93% 30.15 in 1.8 mi NNE 8.1 mph 20.7 mph 0.00 in Snow Light Snow
2:28 AM 28.4 °F 20.4 °F 28.4 °F 100% 30.16 in 1.0 mi NNE 8.1 mph - 0.04 in Snow Light Snow
2:35 AM 28.4 °F 18.0 °F 28.4 °F 100% 30.16 in 1.0 mi NE 12.7 mph - 0.05 in Snow Light Snow
2:56 AM 28.9 °F 21.9 °F 28.0 °F 96% 30.18 in 1.0 mi NE 6.9 mph - 0.07 in Snow Light Snow
3:42 AM 28.4 °F 16.6 °F 26.6 °F 93% 30.03 in 2.0 mi ENE 16.1 mph - 0.02 in Snow Light Snow
3:54 AM 28.4 °F 16.6 °F 26.6 °F 93% 30.02 in 5.0 mi ENE 16.1 mph 24.2 mph 0.02 in Snow Light Snow
3:56 AM 28.9 °F 17.3 °F 27.0 °F 92% 30.06 in 7.0 mi ENE 16.1 mph - 0.02 in Snow Light Snow
4:08 AM 28.4 °F 17.5 °F 26.6 °F 93% 30.03 in 10.0 mi NE 13.8 mph - 0.00 in   Overcast
4:56 AM 30.0 °F 24.1 °F 26.1 °F 85% 30.12 in 10.0 mi ENE 5.8 mph - 0.00 in   Overcast
5:56 AM 30.0 °F 24.1 °F 26.1 °F 85% 30.17 in 10.0 mi NNE 5.8 mph - N/A   Overcast
6:13 AM 30.2 °F 22.6 °F 26.6 °F 86% 30.13 in 10.0 mi NNE 8.1 mph - N/A   Overcast
6:56 AM 30.0 °F 18.7 °F 24.1 °F 79% 30.05 in 10.0 mi ENE 16.1 mph - N/A   Mostly Cloudy
7:56 AM 32.0 °F 24.8 °F 23.0 °F 69% 30.04 in 10.0 mi NE 8.1 mph - N/A   Scattered Clouds
8:56 AM 33.1 °F 25.5 °F 23.0 °F 66% 30.11 in 10.0 mi NE 9.2 mph - N/A   Overcast
10:56 AM 36.0 °F 27.5 °F 24.1 °F 62% 30.09 in 10.0 mi ENE 12.7 mph 20.7 mph N/A   Overcast
12:56 PM 37.9 °F 29.2 °F 25.0 °F 60% 30.08 in 10.0 mi NE 15.0 mph - N/A   Overcast
1:56 PM 39.0 °F 29.9 °F 26.1 °F 60% 30.07 in 10.0 mi ENE 17.3 mph - N/A   Overcast
2:56 PM 37.9 °F 30.0 °F 26.1 °F 62% 30.08 in 10.0 mi East 12.7 mph - N/A   Overcast
3:56 PM 37.9 °F 31.5 °F 26.1 °F 62% 30.08 in 10.0 mi ENE 9.2 mph - N/A   Overcast
4:56 PM 37.9 °F 33.5 °F 26.1 °F 62% 30.06 in 10.0 mi ENE 5.8 mph - N/A   Overcast
5:56 PM 37.9 °F 33.5 °F 26.1 °F 62% 30.04 in 10.0 mi ENE 5.8 mph - 0.00 in   Overcast
6:56 PM 39.0 °F 32.8 °F 25.0 °F 57% 30.01 in 10.0 mi East 9.2 mph - N/A   Overcast
7:56 PM 37.9 °F 33.5 °F 26.1 °F 62% 29.97 in 10.0 mi NE 5.8 mph - N/A   Overcast
8:56 PM 37.9 °F 34.4 °F 26.1 °F 62% 29.99 in 10.0 mi East 4.6 mph - N/A   Overcast
9:56 PM 39.0 °F 31.8 °F 21.9 °F 50% 30.00 in 10.0 mi ENE 11.5 mph - N/A   Overcast
10:56 PM 37.9 °F 28.9 °F 19.9 °F 48% 29.94 in 10.0 mi East 16.1 mph 23.0 mph N/A   Mostly Cloudy
11:56 PM 37.9 °F 30.0 °F 19.0 °F 47% 29.94 in 10.0 mi ENE 12.7 mph 25.3 mph N/A   Overcast